This demonstration page uses our WeatherBlox Daily Observations layout. Learn more.

40.92945, -100.16068

Hourly Observations for January 14, 2017

Temp ( °F °C ) Dew Point ( °F °C ) Humidity (%) Winds ( mph kmh ) Pressure ( in mb ) Visibility ( mi km ) Precip ( " mm )
12:15 am 00:15 Clear 17 -8.1 11 -11.6 76 76 Calm 30.62 1037 10 16.0934 0 0
12:35 am 00:35 Clear 14 -9.8 10 -12.5 81 81 Calm 30.62 1037 10 16.0934 0 0
12:55 am 00:55 Clear 13 -10.3 9 -12.6 83 83 Calm 30.65 1038 10 16.0934 0 0
1:15 am 01:15 Clear 14 -10 10 -12.2 84 84 Calm 30.65 1038 10 16.0934 0 0
1:35 am 01:35 Partly Cloudy 16 -9.1 11 -11.7 82 82 W 3 6 30.62 1037 10 16.0934 0 0
1:55 am 01:55 Partly Cloudy 15 -9.2 11 -11.5 84 84 Calm 30.62 1037 10 16.0934 0 0
2:15 am 02:15 Partly Cloudy 15 -9.2 11 -11.5 84 84 Calm 30.62 1037 10 16.0934 0 0
2:35 am 02:35 Partly Cloudy 16 -9 12 -11.1 85 85 NW 5 7 30.62 1037 10 16.0934 0 0
2:55 am 02:55 Partly Cloudy 15 -9.2 11 -11.5 84 84 N 3 6 30.62 1037 10 16.0934 0 0
3:15 am 03:15 Partly Cloudy 16 -9 11 -11.5 82 82 NNW 3 6 30.62 1037 10 16.0934 0 0
3:35 am 03:35 Partly Cloudy 15 -9.2 11 -11.7 82 82 NNW 5 7 30.62 1037 10 16.0934 0 0
3:55 am 03:55 Mostly Cloudy 15 -9.5 10 -12 82 82 NNW 6 9 30.62 1037 10 16.0934 0 0
4:15 am 04:15 Partly Cloudy 14 -9.8 10 -12.1 83 83 N 5 7 30.59 1036 10 16.0934 0 0
4:35 am 04:35 Partly Cloudy 14 -10 10 -12.2 84 84 Calm 30.59 1036 10 16.0934 0 0
4:55 am 04:55 Cloudy 15 -9.4 11 -11.7 84 84 WSW 3 6 30.59 1036 7 11.26538 0 0
5:15 am 05:15 Mostly Cloudy 15 -9.7 10 -12 84 84 W 6 9 30.62 1037 10 16.0934 0 0
5:35 am 05:35 Partly Cloudy 15 -9.7 10 -12.2 82 82 W 5 7 30.62 1037 10 16.0934 0 0
5:55 am 05:55 Clear 15 -9.7 10 -12.1 83 83 W 5 7 30.62 1037 10 16.0934 0 0
6:15 am 06:15 Clear 16 -9.1 11 -11.5 83 83 Calm 30.59 1036 10 16.0934 0 0
6:35 am 06:35 Partly Cloudy 15 -9.5 11 -11.6 85 85 WNW 3 6 30.59 1036 10 16.0934 0 0
6:55 am 06:55 Partly Cloudy 15 -9.4 11 -11.6 84 84 WNW 3 6 30.59 1036 10 16.0934 0 0
7:15 am 07:15 Clear 14 -9.8 10 -12.1 83 83 W 3 6 30.62 1037 10 16.0934 0 0
7:35 am 07:35 Clear 14 -10 10 -12.2 84 84 WNW 5 7 30.65 1038 10 16.0934 0 0
7:55 am 07:55 Partly Cloudy 14 -10.2 10 -12.5 83 83 Calm 30.65 1038 10 16.0934 0 0
8:15 am 08:15 Partly Cloudy 14 -10 10 -12.2 84 84 Calm 30.59 1036 10 16.0934 0 0
8:35 am 08:35 Sunny 14 -9.8 10 -12.1 83 83 W 3 6 30.59 1036 10 16.0934 0 0
8:55 am 08:55 Partly Cloudy 16 -9.1 11 -11.6 82 82 W 5 7 30.62 1037 10 16.0934 0 0
9:15 am 09:15 Partly Cloudy 18 -7.7 13 -10.7 79 79 W 6 9 30.62 1037 10 16.0934 0 0
9:35 am 09:35 Cloudy 20 -6.5 14 -10 76 76 WNW 8 13 30.59 1036 10 16.0934 0 0
9:55 am 09:55 Partly Cloudy 22 -5.5 15 -9.5 74 74 W 7 11 30.59 1036 10 16.0934 0 0
10:15 am 10:15 Sunny 23 -4.8 16 -9 73 73 WNW 5 7 30.59 1036 10 16.0934 0 0
10:35 am 10:35 Sunny 25 -4 16 -8.8 70 70 WNW 5 7 30.59 1036 10 16.0934 0 0
10:55 am 10:55 Sunny 26 -3.3 17 -8.5 68 68 WNW 3 6 30.59 1036 10 16.0934 0 0
11:15 am 11:15 Sunny 27 -2.9 17 -8.4 66 66 Calm 30.56 1035 10 16.0934 0 0
11:35 am 11:35 Sunny 27 -2.6 17 -8.4 65 65 Calm 30.56 1035 10 16.0934 0 0
11:55 am 11:55 Sunny 29 -1.4 17 -8.1 61 61 Calm 30.53 1034 10 16.0934 0 0
12:15 pm 12:15 Sunny 30 -1.1 18 -8 60 60 Calm 30.53 1034 10 16.0934 0 0
12:35 pm 12:35 Sunny 31 -0.4 19 -7.5 59 59 Calm 30.5 1033 10 16.0934 0 0
12:55 pm 12:55 Sunny 31 -0.3 18 -7.6 58 58 Calm 30.5 1033 10 16.0934 0 0
1:15 pm 13:15 Sunny 33 0.8 19 -7.3 55 55 Calm 30.5 1033 10 16.0934 0 0
1:35 pm 13:35 Sunny 35 1.5 19 -7 54 54 Calm 30.48 1032 10 16.0934 0 0
1:55 pm 13:55 Sunny 35 1.4 19 -7.1 54 54 Calm 30.48 1032 10 16.0934 0 0
2:15 pm 14:15 Sunny 34 1.2 19 -7.1 54 54 Calm 30.45 1031 10 16.0934 0 0
2:35 pm 14:35 Sunny 35 1.5 20 -6.6 55 55 E 3 6 30.45 1031 10 16.0934 0 0
2:55 pm 14:55 Sunny 35 1.5 20 -6.7 55 55 Calm 30.45 1031 10 16.0934 0 0
3:15 pm 15:15 Sunny 35 1.7 19 -7 53 53 Calm 30.45 1031 10 16.0934 0 0
3:35 pm 15:35 Partly Cloudy 35 1.4 20 -6.8 55 55 Calm 30.45 1031 10 16.0934 0 0
3:55 pm 15:55 Partly Cloudy 35 1.5 20 -6.5 56 56 Calm 30.45 1031 10 16.0934 0 0
4:15 pm 16:15 Mostly Cloudy 35 1.5 21 -6.1 57 57 ENE 3 6 30.45 1031 10 16.0934 0 0
4:35 pm 16:35 Cloudy 34 1.3 21 -5.9 59 59 E 5 7 30.45 1031 10 16.0934 0 0
4:55 pm 16:55 Cloudy 34 1.3 21 -6.2 58 58 ESE 3 6 30.45 1031 10 16.0934 0 0
5:15 pm 17:15 Cloudy 34 1.2 21 -6 59 59 SE 3 6 30.45 1031 10 16.0934 0 0
5:35 pm 17:35 Cloudy 34 1 22 -5.7 61 61 SE 3 6 30.45 1031 10 16.0934 0 0
5:55 pm 17:55 Mostly Cloudy 33 0.8 22 -5.7 62 62 SE 5 7 30.48 1032 10 16.0934 0 0
6:15 pm 18:15 Mostly Cloudy 33 0.6 22 -5.4 65 65 SE 6 9 30.5 1033 10 16.0934 0 0
6:35 pm 18:35 Cloudy 33 0.6 22 -5.4 65 65 SSE 5 7 30.5 1033 10 16.0934 0 0
6:55 pm 18:55 Cloudy 33 0.4 23 -5.1 67 67 SE 3 6 30.5 1033 10 16.0934 0 0
7:15 pm 19:15 Cloudy 32 0.2 21 -5.9 64 64 SE 5 7 30.5 1033 10 16.0934 0 0
7:35 pm 19:35 Cloudy 32 0.1 22 -5.7 65 65 SSE 5 7 30.48 1032 10 16.0934 0 0
7:55 pm 19:55 Cloudy 32 0 22 -5.6 66 66 SSE 3 6 30.48 1032 10 16.0934 0 0
8:15 pm 20:15 Cloudy 31 -0.3 22 -5.6 68 68 Calm 30.48 1032 10 16.0934 0 0
8:35 pm 20:35 Cloudy 31 -0.5 22 -5.6 69 69 Calm 30.48 1032 10 16.0934 0 0
8:55 pm 20:55 Cloudy 31 -0.7 22 -5.6 70 70 Calm 30.48 1032 10 16.0934 0 0
9:15 pm 21:15 Cloudy 31 -0.8 23 -5.1 73 73 SSE 3 6 30.48 1032 10 16.0934 0 0
9:35 pm 21:35 Cloudy 31 -0.7 24 -4.7 75 75 Calm 30.48 1032 10 16.0934 0 0
9:55 pm 21:55 Cloudy 30 -1 23 -4.8 76 76 Calm 30.48 1032 10 16.0934 0 0
10:15 pm 22:15 Partly Cloudy 29 -1.4 23 -5.1 76 76 Calm 30.45 1031 10 16.0934 0 0
10:35 pm 22:35 Clear 28 -2.4 22 -5.6 79 79 E 3 6 30.48 1032 10 16.0934 0 0
10:55 pm 22:55 Partly Cloudy 26 -3.3 21 -6.1 81 81 Calm 30.48 1032 10 16.0934 0 0
11:15 pm 23:15 Partly Cloudy 27 -2.9 22 -5.8 81 81 ESE 3 6 30.48 1032 10 16.0934 0 0
11:35 pm 23:35 Partly Cloudy 26 -3.3 21 -6.1 81 81 SE 3 6 30.48 1032 10 16.0934 0 0
11:55 pm 23:55 Mostly Cloudy 27 -2.8 22 -5.8 80 80 Calm 30.48 1032 10 16.0934 0 0

Powered by AerisWeather